Time,TemperatureF,DewpointF,PressureIn,WindDirection,WindDirectionDegrees,WindSpeedMPH,WindSpeedGustMPH,Humidity,HourlyPrecipIn,Conditions,Clouds,dailyrainin,SoftwareType,DateUTC
2013-12-03 00:02:00,45.5,38.0,29.82,SW,223,0.0,0.0,75,0.00,,---,0.00,VWS V14.01,2013-12-03 08:02:00,
2013-12-03 00:12:00,45.1,38.0,29.82,SW,223,0.0,0.0,76,0.00,,---,0.00,VWS V14.01,2013-12-03 08:12:00,
2013-12-03 00:17:00,44.9,37.8,29.81,SW,223,0.0,0.0,76,0.00,,---,0.00,VWS V14.01,2013-12-03 08:17:00,
2013-12-03 00:27:00,44.6,37.5,29.81,SW,223,0.0,0.0,76,0.00,,---,0.00,VWS V14.01,2013-12-03 08:27:00,
2013-12-03 00:37:00,44.3,37.6,29.80,North,0,0.0,0.0,77,0.00,,---,0.00,VWS V14.01,2013-12-03 08:37:00,
2013-12-03 00:47:00,44.1,37.4,29.80,North,0,0.0,0.0,77,0.00,,---,0.00,VWS V14.01,2013-12-03 08:47:00,
2013-12-03 00:52:00,43.9,37.2,29.80,North,0,0.0,0.0,77,0.00,,---,0.00,VWS V14.01,2013-12-03 08:52:00,
2013-12-03 00:57:00,43.9,37.2,29.80,North,0,0.0,0.0,77,0.00,,---,0.00,VWS V14.01,2013-12-03 08:57:00,
2013-12-03 01:07:00,43.6,37.2,29.79,North,0,0.0,0.0,78,0.00,,---,0.00,VWS V14.01,2013-12-03 09:07:00,
2013-12-03 01:12:00,43.6,37.2,29.79,North,0,0.0,0.0,78,0.00,,---,0.00,VWS V14.01,2013-12-03 09:12:00,
2013-12-03 01:17:00,43.5,37.1,29.79,North,0,0.0,0.0,78,0.00,,---,0.00,VWS V14.01,2013-12-03 09:17:00,
2013-12-03 01:22:00,43.3,36.9,29.79,North,0,0.0,0.0,78,0.00,,---,0.00,VWS V14.01,2013-12-03 09:22:00,
2013-12-03 01:32:00,43.1,36.7,29.79,North,0,0.0,0.0,78,0.00,,---,0.00,VWS V14.01,2013-12-03 09:32:00,
2013-12-03 01:37:00,42.9,36.8,29.79,North,0,0.0,0.0,79,0.00,,---,0.00,VWS V14.01,2013-12-03 09:37:00,
2013-12-03 01:42:00,42.9,36.8,29.79,North,0,0.0,0.0,79,0.00,,---,0.00,VWS V14.01,2013-12-03 09:42:00,
2013-12-03 01:47:00,42.8,36.8,29.78,North,0,0.0,0.0,79,0.00,,---,0.00,VWS V14.01,2013-12-03 09:47:00,
2013-12-03 01:52:00,42.8,36.8,29.78,North,0,0.0,0.0,79,0.00,,---,0.00,VWS V14.01,2013-12-03 09:52:00,
2013-12-03 01:57:00,42.8,36.8,29.78,North,0,0.0,0.0,79,0.00,,---,0.00,VWS V14.01,2013-12-03 09:57:00,
2013-12-03 02:02:00,42.6,36.5,29.78,North,0,0.0,0.0,79,0.00,,---,0.00,VWS V14.01,2013-12-03 10:02:00,
2013-12-03 02:07:00,42.6,36.5,29.78,North,0,0.0,0.0,79,0.00,,---,0.00,VWS V14.01,2013-12-03 10:07:00,
2013-12-03 02:17:00,42.3,36.6,29.79,North,0,0.0,0.0,80,0.00,,---,0.00,VWS V14.01,2013-12-03 10:17:00,
2013-12-03 02:22:00,42.2,36.5,29.79,North,0,0.0,0.0,80,0.00,,---,0.00,VWS V14.01,2013-12-03 10:22:00,
2013-12-03 02:27:00,42.1,36.4,29.79,North,0,0.0,0.0,80,0.00,,---,0.00,VWS V14.01,2013-12-03 10:27:00,
2013-12-03 02:37:00,41.9,36.2,29.78,North,0,0.0,0.0,80,0.00,,---,0.00,VWS V14.01,2013-12-03 10:37:00,
2013-12-03 02:47:00,41.8,36.1,29.78,North,0,0.0,0.0,80,0.00,,---,0.00,VWS V14.01,2013-12-03 10:47:00,
2013-12-03 02:52:00,41.6,35.9,29.78,North,0,0.0,0.0,80,0.00,,---,0.00,VWS V14.01,2013-12-03 10:52:00,
2013-12-03 02:57:00,41.5,35.8,29.78,North,0,0.0,0.0,80,0.00,,---,0.00,VWS V14.01,2013-12-03 10:57:00,
2013-12-03 03:02:00,41.5,36.1,29.79,North,0,0.0,0.0,81,0.00,,---,0.00,VWS V14.01,2013-12-03 11:02:00,
2013-12-03 03:07:00,41.3,35.9,29.79,North,0,0.0,0.0,81,0.00,,---,0.00,VWS V14.01,2013-12-03 11:07:00,
2013-12-03 03:17:00,41.1,35.7,29.78,North,0,0.0,0.0,81,0.00,,---,0.00,VWS V14.01,2013-12-03 11:17:00,
2013-12-03 03:22:00,40.9,35.5,29.78,North,0,0.0,0.0,81,0.00,,---,0.00,VWS V14.01,2013-12-03 11:22:00,
2013-12-03 03:27:00,40.8,35.4,29.78,North,0,0.0,0.0,81,0.00,,---,0.00,VWS V14.01,2013-12-03 11:27:00,
2013-12-03 03:37:00,40.6,35.2,29.78,North,0,0.0,0.0,81,0.00,,---,0.00,VWS V14.01,2013-12-03 11:37:00,
2013-12-03 03:42:00,40.5,35.1,29.78,North,0,0.0,0.0,81,0.00,,---,0.00,VWS V14.01,2013-12-03 11:42:00,
2013-12-03 03:47:00,40.3,34.9,29.78,North,0,0.0,0.0,81,0.00,,---,0.00,VWS V14.01,2013-12-03 11:47:00,
2013-12-03 03:52:00,40.2,35.2,29.78,North,0,0.0,0.0,82,0.00,,---,0.00,VWS V14.01,2013-12-03 11:52:00,
2013-12-03 03:57:00,40.1,35.1,29.78,North,0,0.0,0.0,82,0.00,,---,0.00,VWS V14.01,2013-12-03 11:57:00,
2013-12-03 04:02:00,40.1,35.1,29.77,North,0,0.0,0.0,82,0.00,,---,0.00,VWS V14.01,2013-12-03 12:02:00,
2013-12-03 04:07:00,40.1,35.1,29.77,North,0,0.0,0.0,82,0.00,,---,0.00,VWS V14.01,2013-12-03 12:07:00,
2013-12-03 04:17:00,40.1,35.1,29.77,North,0,0.0,0.0,82,0.00,,---,0.00,VWS V14.01,2013-12-03 12:17:00,
2013-12-03 04:22:00,40.2,35.2,29.77,North,0,0.0,0.0,82,0.00,,---,0.00,VWS V14.01,2013-12-03 12:22:00,
2013-12-03 04:32:00,40.2,35.5,29.77,North,0,0.0,0.0,83,0.00,,---,0.00,VWS V14.01,2013-12-03 12:32:00,
2013-12-03 04:37:00,40.2,35.5,29.77,North,0,0.0,0.0,83,0.00,,---,0.00,VWS V14.01,2013-12-03 12:37:00,
2013-12-03 04:42:00,40.2,35.5,29.77,North,0,0.0,0.0,83,0.00,,---,0.00,VWS V14.01,2013-12-03 12:42:00,
2013-12-03 04:52:00,40.1,35.4,29.76,North,0,0.0,0.0,83,0.00,,---,0.00,VWS V14.01,2013-12-03 12:52:00,
2013-12-03 05:02:00,40.1,35.4,29.75,North,0,0.0,0.0,83,0.00,,---,0.00,VWS V14.01,2013-12-03 13:02:00,
2013-12-03 05:07:00,39.9,35.2,29.75,North,0,0.0,0.0,83,0.00,,---,0.00,VWS V14.01,2013-12-03 13:07:00,
2013-12-03 05:12:00,39.9,35.2,29.75,North,0,0.0,0.0,83,0.00,,---,0.00,VWS V14.01,2013-12-03 13:12:00,
2013-12-03 05:22:00,39.6,34.9,29.75,North,0,0.0,0.0,83,0.00,,---,0.00,VWS V14.01,2013-12-03 13:22:00,
2013-12-03 05:27:00,39.6,34.9,29.75,North,0,0.0,0.0,83,0.00,,---,0.00,VWS V14.01,2013-12-03 13:27:00,
2013-12-03 05:32:00,39.5,34.8,29.75,North,0,0.0,0.0,83,0.00,,---,0.00,VWS V14.01,2013-12-03 13:32:00,
2013-12-03 05:37:00,39.5,34.8,29.75,North,0,0.0,0.0,83,0.00,,---,0.00,VWS V14.01,2013-12-03 13:37:00,
2013-12-03 05:42:00,39.6,35.2,29.75,North,0,0.0,0.0,84,0.00,,---,0.00,VWS V14.01,2013-12-03 13:42:00,
2013-12-03 05:52:00,39.8,35.4,29.75,North,0,0.0,0.0,84,0.00,,---,0.00,VWS V14.01,2013-12-03 13:52:00,
2013-12-03 05:57:00,39.8,35.4,29.75,North,0,0.0,0.0,84,0.00,,---,0.00,VWS V14.01,2013-12-03 13:57:00,
2013-12-03 06:02:00,39.8,35.4,29.75,North,0,0.0,0.0,84,0.00,,---,0.00,VWS V14.01,2013-12-03 14:02:00,
2013-12-03 06:07:00,39.8,35.4,29.75,North,0,0.0,0.0,84,0.00,,---,0.00,VWS V14.01,2013-12-03 14:07:00,
2013-12-03 06:17:00,39.6,35.2,29.76,North,0,0.0,0.0,84,0.00,,---,0.00,VWS V14.01,2013-12-03 14:17:00,
2013-12-03 06:22:00,39.6,35.2,29.76,North,0,0.0,0.0,84,0.00,,---,0.00,VWS V14.01,2013-12-03 14:22:00,
2013-12-03 06:27:00,39.5,35.1,29.76,North,0,0.0,0.0,84,0.00,,---,0.00,VWS V14.01,2013-12-03 14:27:00,
2013-12-03 06:32:00,39.3,34.9,29.77,North,0,0.0,0.0,84,0.00,,---,0.00,VWS V14.01,2013-12-03 14:32:00,
2013-12-03 06:42:00,39.3,34.9,29.77,North,0,0.0,0.0,84,0.00,,---,0.00,VWS V14.01,2013-12-03 14:42:00,
2013-12-03 06:47:00,39.3,35.2,29.77,North,0,0.0,0.0,85,0.00,,---,0.00,VWS V14.01,2013-12-03 14:47:00,
2013-12-03 06:52:00,39.3,35.2,29.77,North,0,0.0,0.0,85,0.00,,---,0.00,VWS V14.01,2013-12-03 14:52:00,
2013-12-03 06:57:00,39.2,35.1,29.77,North,0,0.0,0.0,85,0.00,,---,0.00,VWS V14.01,2013-12-03 14:57:00,
2013-12-03 07:02:00,39.2,35.1,29.77,North,0,0.0,0.0,85,0.00,,---,0.00,VWS V14.01,2013-12-03 15:02:00,
2013-12-03 07:07:00,39.2,35.1,29.77,North,0,0.0,0.0,85,0.00,,---,0.00,VWS V14.01,2013-12-03 15:07:00,
2013-12-03 07:12:00,39.1,35.0,29.77,NW,322,0.0,0.0,85,0.00,,---,0.00,VWS V14.01,2013-12-03 15:12:00,
2013-12-03 07:22:00,38.9,34.8,29.77,NW,322,0.0,0.0,85,0.00,,---,0.00,VWS V14.01,2013-12-03 15:22:00,
2013-12-03 07:27:00,39.1,35.0,29.77,NW,322,0.0,0.0,85,0.00,,---,0.00,VWS V14.01,2013-12-03 15:27:00,
2013-12-03 07:37:00,39.9,36.1,29.77,NW,322,0.0,0.0,86,0.00,,---,0.00,VWS V14.01,2013-12-03 15:37:00,
2013-12-03 07:47:00,40.8,36.9,29.77,NW,322,0.0,0.0,86,0.00,,---,0.00,VWS V14.01,2013-12-03 15:47:00,
2013-12-03 07:52:00,41.9,38.0,29.77,NW,320,0.0,0.0,86,0.00,,---,0.00,VWS V14.01,2013-12-03 15:52:00,
2013-12-03 07:57:00,44.1,39.0,29.77,NW,320,0.0,0.0,82,0.00,,---,0.00,VWS V14.01,2013-12-03 15:57:00,
2013-12-03 08:07:00,45.4,38.3,29.77,NW,319,0.0,0.0,76,0.00,,---,0.00,VWS V14.01,2013-12-03 16:07:00,
2013-12-03 08:17:00,46.4,38.2,29.77,NW,319,0.0,0.0,73,0.00,,---,0.00,VWS V14.01,2013-12-03 16:17:00,
2013-12-03 08:27:00,47.4,38.5,29.77,NW,319,0.0,0.0,71,0.00,,---,0.00,VWS V14.01,2013-12-03 16:27:00,
2013-12-03 08:32:00,48.5,38.8,29.77,NW,319,0.0,0.0,69,0.00,,---,0.00,VWS V14.01,2013-12-03 16:32:00,
2013-12-03 08:37:00,49.6,39.5,29.77,NW,319,0.0,0.0,68,0.00,,---,0.00,VWS V14.01,2013-12-03 16:37:00,
2013-12-03 08:47:00,50.8,39.5,29.77,NW,319,0.0,0.0,65,0.00,,---,0.00,VWS V14.01,2013-12-03 16:47:00,
2013-12-03 08:52:00,51.6,40.2,29.77,NW,319,0.0,0.0,65,0.00,,---,0.00,VWS V14.01,2013-12-03 16:52:00,
2013-12-03 09:02:00,53.1,40.4,29.78,NW,319,0.0,0.0,62,0.00,,---,0.00,VWS V14.01,2013-12-03 17:02:00,
2013-12-03 09:07:00,53.5,40.4,29.78,NW,319,0.0,0.0,61,0.00,,---,0.00,VWS V14.01,2013-12-03 17:07:00,
2013-12-03 09:12:00,53.8,40.7,29.78,NW,319,0.0,0.0,61,0.00,,---,0.00,VWS V14.01,2013-12-03 17:12:00,
2013-12-03 09:17:00,54.2,40.6,29.78,NW,319,0.0,0.0,60,0.00,,---,0.00,VWS V14.01,2013-12-03 17:17:00,
2013-12-03 09:22:00,54.4,40.4,29.78,NW,319,0.0,0.0,59,0.00,,---,0.00,VWS V14.01,2013-12-03 17:22:00,
2013-12-03 09:27:00,55.1,40.2,29.78,NW,319,0.0,0.0,57,0.00,,---,0.00,VWS V14.01,2013-12-03 17:27:00,
2013-12-03 09:32:00,55.7,40.7,29.78,NW,319,0.0,0.0,57,0.00,,---,0.00,VWS V14.01,2013-12-03 17:32:00,
2013-12-03 09:42:00,57.5,41.0,29.78,South,181,0.0,0.0,54,0.00,,---,0.00,VWS V14.01,2013-12-03 17:42:00,
2013-12-03 09:52:00,58.6,40.5,29.78,South,182,0.0,0.0,51,0.00,,---,0.00,VWS V14.01,2013-12-03 17:52:00,
2013-12-03 09:57:00,58.9,40.3,29.78,South,185,0.0,0.0,50,0.00,,---,0.00,VWS V14.01,2013-12-03 17:57:00,
2013-12-03 10:02:00,59.8,41.1,29.77,South,184,0.0,0.0,50,0.00,,---,0.00,VWS V14.01,2013-12-03 18:02:00,
2013-12-03 10:12:00,60.7,40.4,29.77,South,184,0.0,0.0,47,0.00,,---,0.00,VWS V14.01,2013-12-03 18:12:00,
2013-12-03 10:22:00,62.1,43.3,29.77,SSW,202,0.0,0.0,50,0.00,,---,0.00,VWS V14.01,2013-12-03 18:22:00,
2013-12-03 10:27:00,62.1,43.3,29.77,South,169,0.0,0.0,50,0.00,,---,0.00,VWS V14.01,2013-12-03 18:27:00,
2013-12-03 10:32:00,62.7,43.8,29.76,South,174,0.0,0.0,50,0.00,,---,0.00,VWS V14.01,2013-12-03 18:32:00,
2013-12-03 10:42:00,63.4,44.5,29.76,SSW,192,0.0,0.0,50,0.00,,---,0.00,VWS V14.01,2013-12-03 18:42:00,
2013-12-03 10:47:00,63.4,43.9,29.75,SSW,192,0.0,0.0,49,0.00,,---,0.00,VWS V14.01,2013-12-03 18:47:00,
2013-12-03 10:52:00,64.0,44.5,29.75,SSW,203,0.0,0.0,49,0.00,,---,0.00,VWS V14.01,2013-12-03 18:52:00,
2013-12-03 10:57:00,64.5,44.4,29.75,SSW,202,0.0,0.0,48,0.00,,---,0.00,VWS V14.01,2013-12-03 18:57:00,
2013-12-03 11:07:00,65.0,44.8,29.74,SSW,203,0.0,0.0,48,0.00,,---,0.00,VWS V14.01,2013-12-03 19:07:00,
2013-12-03 11:12:00,65.3,45.1,29.74,West,261,0.0,0.0,48,0.00,,---,0.00,VWS V14.01,2013-12-03 19:12:00,
2013-12-03 11:17:00,65.3,44.6,29.73,West,263,0.0,0.0,47,0.00,,---,0.00,VWS V14.01,2013-12-03 19:17:00,
2013-12-03 11:22:00,65.6,44.8,29.73,South,185,0.0,0.0,47,0.00,,---,0.00,VWS V14.01,2013-12-03 19:22:00,
2013-12-03 11:32:00,65.8,45.0,29.71,WSW,246,0.0,0.0,47,0.00,,---,0.00,VWS V14.01,2013-12-03 19:32:00,
2013-12-03 11:37:00,65.6,44.3,29.71,WSW,246,0.0,0.0,46,0.00,,---,0.00,VWS V14.01,2013-12-03 19:37:00,
2013-12-03 11:47:00,66.8,45.4,29.70,SW,217,0.0,0.0,46,0.00,,---,0.00,VWS V14.01,2013-12-03 19:47:00,
2013-12-03 11:52:00,67.1,46.2,29.70,SW,220,0.0,0.0,47,0.00,,---,0.00,VWS V14.01,2013-12-03 19:52:00,
2013-12-03 11:57:00,67.1,46.2,29.70,WSW,239,0.0,0.0,47,0.00,,---,0.00,VWS V14.01,2013-12-03 19:57:00,
2013-12-03 12:02:00,67.1,45.7,29.69,WSW,237,0.0,0.0,46,0.00,,---,0.00,VWS V14.01,2013-12-03 20:02:00,
2013-12-03 12:07:00,67.4,45.9,29.69,WSW,254,0.0,1.0,46,0.00,,---,0.00,VWS V14.01,2013-12-03 20:07:00,
2013-12-03 12:17:00,67.4,47.6,29.68,SW,226,0.0,2.0,49,0.00,,---,0.00,VWS V14.01,2013-12-03 20:17:00,
2013-12-03 12:22:00,67.6,48.3,29.68,SW,233,0.0,3.0,50,0.00,,---,0.00,VWS V14.01,2013-12-03 20:22:00,
2013-12-03 12:27:00,67.6,48.3,29.68,SW,236,2.0,7.0,50,0.00,,---,0.00,VWS V14.01,2013-12-03 20:27:00,
2013-12-03 12:32:00,67.8,49.0,29.67,SSW,195,0.0,2.0,51,0.00,,---,0.00,VWS V14.01,2013-12-03 20:32:00,
2013-12-03 12:42:00,67.4,49.2,29.67,West,260,1.0,2.0,52,0.00,,---,0.00,VWS V14.01,2013-12-03 20:42:00,
2013-12-03 12:47:00,67.8,49.5,29.67,SSW,205,2.0,5.0,52,0.00,,---,0.00,VWS V14.01,2013-12-03 20:47:00,
2013-12-03 12:52:00,68.6,49.8,29.67,SW,233,0.0,3.0,51,0.00,,---,0.00,VWS V14.01,2013-12-03 20:52:00,
2013-12-03 13:02:00,67.6,48.8,29.66,WNW,285,1.0,5.0,51,0.00,,---,0.00,VWS V14.01,2013-12-03 21:02:00,
2013-12-03 13:12:00,67.4,48.7,29.66,WSW,256,0.0,6.0,51,0.00,,---,0.00,VWS V14.01,2013-12-03 21:12:00,
2013-12-03 13:17:00,67.1,49.9,29.65,WSW,237,2.0,11.0,54,0.00,,---,0.00,VWS V14.01,2013-12-03 21:17:00,
2013-12-03 13:27:00,65.8,52.0,29.65,West,280,1.0,8.0,61,0.00,,---,0.00,VWS V14.01,2013-12-03 21:27:00,
2013-12-03 13:32:00,65.3,52.4,29.65,WSW,256,1.0,10.0,63,0.00,,---,0.00,VWS V14.01,2013-12-03 21:32:00,
2013-12-03 13:37:00,64.8,52.3,29.65,WSW,240,2.0,8.0,64,0.00,,---,0.00,VWS V14.01,2013-12-03 21:37:00,
2013-12-03 13:47:00,64.3,52.3,29.65,SW,234,2.0,11.0,65,0.00,,---,0.00,VWS V14.01,2013-12-03 21:47:00,
2013-12-03 13:52:00,64.2,52.2,29.65,South,189,0.0,13.0,65,0.00,,---,0.00,VWS V14.01,2013-12-03 21:52:00,
2013-12-03 14:02:00,63.2,51.7,29.65,SW,224,6.0,16.0,66,0.00,,---,0.00,VWS V14.01,2013-12-03 22:02:00,
2013-12-03 14:12:00,62.3,51.6,29.65,SW,217,0.0,7.0,68,0.00,,---,0.00,VWS V14.01,2013-12-03 22:12:00,
2013-12-03 14:22:00,62.0,51.3,29.65,SW,224,0.0,6.0,68,0.00,,---,0.00,VWS V14.01,2013-12-03 22:22:00,
2013-12-03 14:32:00,63.4,52.7,29.65,WSW,257,1.0,11.0,68,0.00,,---,0.00,VWS V14.01,2013-12-03 22:32:00,
2013-12-03 14:37:00,63.4,52.3,29.65,WSW,257,0.0,12.0,67,0.00,,---,0.00,VWS V14.01,2013-12-03 22:37:00,
2013-12-03 14:42:00,62.7,52.0,29.65,SW,227,4.0,15.0,68,0.00,,---,0.00,VWS V14.01,2013-12-03 22:42:00,
2013-12-03 14:47:00,62.1,51.8,29.66,West,268,0.0,14.0,69,0.00,,---,0.00,VWS V14.01,2013-12-03 22:47:00,
2013-12-03 14:52:00,61.8,51.9,29.66,West,264,0.0,8.0,70,0.00,,---,0.00,VWS V14.01,2013-12-03 22:52:00,
2013-12-03 14:57:00,61.8,52.3,29.66,SW,223,0.0,7.0,71,0.00,,---,0.00,VWS V14.01,2013-12-03 22:57:00,
2013-12-03 15:07:00,61.5,52.4,29.65,WSW,257,0.0,9.0,72,0.00,,---,0.00,VWS V14.01,2013-12-03 23:07:00,
2013-12-03 15:12:00,61.3,52.2,29.65,West,275,0.0,12.0,72,0.00,,---,0.00,VWS V14.01,2013-12-03 23:12:00,
2013-12-03 15:17:00,61.0,51.9,29.66,WSW,254,0.0,9.0,72,0.00,,---,0.00,VWS V14.01,2013-12-03 23:17:00,
2013-12-03 15:22:00,60.5,51.4,29.66,West,275,0.0,12.0,72,0.00,,---,0.00,VWS V14.01,2013-12-03 23:22:00,
2013-12-03 15:32:00,60.1,51.4,29.66,SW,220,0.0,7.0,73,0.00,,---,0.00,VWS V14.01,2013-12-03 23:32:00,
2013-12-03 15:37:00,59.9,51.2,29.66,WSW,254,0.0,7.0,73,0.00,,---,0.00,VWS V14.01,2013-12-03 23:37:00,
2013-12-03 15:47:00,59.8,51.1,29.66,WSW,251,0.0,7.0,73,0.00,,---,0.00,VWS V14.01,2013-12-03 23:47:00,
2013-12-03 15:57:00,59.6,51.3,29.66,WSW,243,0.0,1.0,74,0.00,,---,0.00,VWS V14.01,2013-12-03 23:57:00,
2013-12-03 16:02:00,59.6,51.3,29.66,West,263,0.0,2.0,74,0.00,,---,0.00,VWS V14.01,2013-12-04 00:02:00,
2013-12-03 16:07:00,59.5,51.6,29.66,WSW,248,0.0,2.0,75,0.00,,---,0.00,VWS V14.01,2013-12-04 00:07:00,
2013-12-03 16:17:00,59.5,51.6,29.66,West,267,0.0,1.0,75,0.00,,---,0.00,VWS V14.01,2013-12-04 00:17:00,
2013-12-03 16:22:00,59.3,51.8,29.66,West,281,0.0,1.0,76,0.00,,---,0.00,VWS V14.01,2013-12-04 00:22:00,
2013-12-03 16:27:00,59.3,51.8,29.66,West,272,0.0,0.0,76,0.00,,---,0.00,VWS V14.01,2013-12-04 00:27:00,
2013-12-03 16:32:00,59.3,52.1,29.66,West,272,0.0,0.0,77,0.00,,---,0.00,VWS V14.01,2013-12-04 00:32:00,
2013-12-03 16:37:00,59.3,52.1,29.66,West,267,0.0,0.0,77,0.00,,---,0.00,VWS V14.01,2013-12-04 00:37:00,
2013-12-03 16:42:00,59.2,52.0,29.66,West,267,0.0,0.0,77,0.00,,---,0.00,VWS V14.01,2013-12-04 00:42:00,
2013-12-03 16:52:00,59.2,52.3,29.65,West,267,0.0,0.0,78,0.00,,---,0.00,VWS V14.01,2013-12-04 00:52:00,
2013-12-03 16:57:00,59.2,52.3,29.65,West,267,0.0,0.0,78,0.00,,---,0.00,VWS V14.01,2013-12-04 00:57:00,
2013-12-03 17:02:00,59.2,52.7,29.64,West,267,0.0,0.0,79,0.00,,---,0.00,VWS V14.01,2013-12-04 01:02:00,
2013-12-03 17:07:00,59.0,52.5,29.64,West,267,0.0,0.0,79,0.00,,---,0.00,VWS V14.01,2013-12-04 01:07:00,
2013-12-03 17:17:00,59.0,52.5,29.64,West,267,0.0,0.0,79,0.00,,---,0.00,VWS V14.01,2013-12-04 01:17:00,
2013-12-03 17:22:00,59.0,52.5,29.64,West,267,0.0,0.0,79,0.00,,---,0.00,VWS V14.01,2013-12-04 01:22:00,
2013-12-03 17:27:00,58.9,52.8,29.64,West,267,0.0,0.0,80,0.00,,---,0.00,VWS V14.01,2013-12-04 01:27:00,
2013-12-03 17:37:00,58.9,52.8,29.64,West,267,0.0,0.0,80,0.00,,---,0.00,VWS V14.01,2013-12-04 01:37:00,
2013-12-03 17:42:00,58.9,52.8,29.64,West,267,0.0,0.0,80,0.00,,---,0.00,VWS V14.01,2013-12-04 01:42:00,
2013-12-03 17:47:00,58.7,52.9,29.64,West,267,0.0,0.0,81,0.00,,---,0.00,VWS V14.01,2013-12-04 01:47:00,
2013-12-03 17:57:00,58.6,52.8,29.64,West,267,0.0,0.0,81,0.00,,---,0.00,VWS V14.01,2013-12-04 01:57:00,
2013-12-03 18:02:00,58.4,52.6,29.64,West,267,0.0,0.0,81,0.00,,---,0.00,VWS V14.01,2013-12-04 02:02:00,
2013-12-03 18:12:00,58.3,52.5,29.64,West,267,0.0,0.0,81,0.00,,---,0.00,VWS V14.01,2013-12-04 02:12:00,
2013-12-03 18:17:00,58.3,52.5,29.64,West,267,0.0,0.0,81,0.00,,---,0.00,VWS V14.01,2013-12-04 02:17:00,
2013-12-03 18:22:00,58.1,52.3,29.64,West,267,0.0,0.0,81,0.00,,---,0.00,VWS V14.01,2013-12-04 02:22:00,
2013-12-03 18:27:00,58.1,52.3,29.64,West,267,0.0,0.0,81,0.00,,---,0.00,VWS V14.01,2013-12-04 02:27:00,
2013-12-03 18:32:00,58.1,52.3,29.64,West,267,0.0,0.0,81,0.00,,---,0.00,VWS V14.01,2013-12-04 02:32:00,
2013-12-03 18:37:00,58.0,52.2,29.64,West,267,0.0,0.0,81,0.00,,---,0.00,VWS V14.01,2013-12-04 02:37:00,
2013-12-03 18:42:00,58.0,52.2,29.64,West,267,0.0,0.0,81,0.00,,---,0.00,VWS V14.01,2013-12-04 02:42:00,
2013-12-03 18:52:00,57.6,52.2,29.65,West,267,0.0,0.0,82,0.00,,---,0.00,VWS V14.01,2013-12-04 02:52:00,
2013-12-03 18:57:00,57.6,52.2,29.65,West,267,0.0,0.0,82,0.00,,---,0.00,VWS V14.01,2013-12-04 02:57:00,
2013-12-03 19:02:00,57.5,52.1,29.65,West,267,0.0,0.0,82,0.00,,---,0.00,VWS V14.01,2013-12-04 03:02:00,
2013-12-03 19:07:00,57.5,52.1,29.65,West,267,0.0,0.0,82,0.00,,---,0.00,VWS V14.01,2013-12-04 03:07:00,
2013-12-03 19:17:00,57.2,51.8,29.65,West,267,0.0,0.0,82,0.00,,---,0.00,VWS V14.01,2013-12-04 03:17:00,
2013-12-03 19:22:00,57.0,51.6,29.65,West,267,0.0,0.0,82,0.00,,---,0.00,VWS V14.01,2013-12-04 03:22:00,
2013-12-03 19:32:00,56.9,51.5,29.65,West,267,0.0,0.0,82,0.00,,---,0.00,VWS V14.01,2013-12-04 03:32:00,
2013-12-03 19:37:00,56.7,51.3,29.65,West,267,0.0,0.0,82,0.00,,---,0.00,VWS V14.01,2013-12-04 03:37:00,
2013-12-03 19:47:00,56.6,51.5,29.64,West,267,0.0,0.0,83,0.00,,---,0.00,VWS V14.01,2013-12-04 03:47:00,
2013-12-03 19:52:00,56.5,51.4,29.64,West,267,0.0,0.0,83,0.00,,---,0.00,VWS V14.01,2013-12-04 03:52:00,
2013-12-03 19:57:00,56.5,51.4,29.64,West,267,0.0,0.0,83,0.00,,---,0.00,VWS V14.01,2013-12-04 03:57:00,
2013-12-03 20:07:00,56.2,51.4,29.64,West,267,0.0,0.0,84,0.00,,---,0.00,VWS V14.01,2013-12-04 04:07:00,
2013-12-03 20:17:00,56.2,51.4,29.64,West,267,0.0,0.0,84,0.00,,---,0.00,VWS V14.01,2013-12-04 04:17:00,
2013-12-03 20:22:00,56.2,51.8,29.64,West,267,0.0,0.0,85,0.00,,---,0.00,VWS V14.01,2013-12-04 04:22:00,
2013-12-03 20:27:00,56.2,51.8,29.64,West,267,0.0,0.0,85,0.00,,---,0.00,VWS V14.01,2013-12-04 04:27:00,
2013-12-03 20:37:00,55.7,51.0,29.65,West,267,0.0,0.0,84,0.00,,---,0.00,VWS V14.01,2013-12-04 04:37:00,
2013-12-03 20:42:00,55.3,50.6,29.65,West,267,0.0,0.0,84,0.00,,---,0.00,VWS V14.01,2013-12-04 04:42:00,
2013-12-03 20:52:00,54.5,49.5,29.65,West,267,0.0,0.0,83,0.00,,---,0.00,VWS V14.01,2013-12-04 04:52:00,
2013-12-03 21:02:00,54.1,49.1,29.65,West,267,0.0,0.0,83,0.00,,---,0.00,VWS V14.01,2013-12-04 05:02:00,
2013-12-03 21:07:00,54.1,48.7,29.65,West,267,0.0,0.0,82,0.00,,---,0.00,VWS V14.01,2013-12-04 05:07:00,
2013-12-03 21:12:00,53.9,48.5,29.65,West,267,0.0,0.0,82,0.00,,---,0.00,VWS V14.01,2013-12-04 05:12:00,
2013-12-03 21:17:00,53.6,48.2,29.66,West,267,0.0,0.0,82,0.00,,---,0.00,VWS V14.01,2013-12-04 05:17:00,
2013-12-03 21:22:00,53.5,47.8,29.66,West,267,0.0,0.0,81,0.00,,---,0.00,VWS V14.01,2013-12-04 05:22:00,
2013-12-03 21:27:00,53.3,47.6,29.66,West,267,0.0,0.0,81,0.00,,---,0.00,VWS V14.01,2013-12-04 05:27:00,
2013-12-03 21:37:00,53.2,47.2,29.66,West,267,0.0,0.0,80,0.00,,---,0.00,VWS V14.01,2013-12-04 05:37:00,
2013-12-03 21:42:00,53.2,47.2,29.66,West,267,0.0,0.0,80,0.00,,---,0.00,VWS V14.01,2013-12-04 05:42:00,
2013-12-03 21:47:00,53.1,46.8,29.66,West,267,0.0,0.0,79,0.00,,---,0.00,VWS V14.01,2013-12-04 05:47:00,
2013-12-03 21:52:00,53.1,46.8,29.66,West,267,0.0,0.0,79,0.00,,---,0.00,VWS V14.01,2013-12-04 05:52:00,
2013-12-03 22:02:00,53.1,46.8,29.66,West,267,0.0,0.0,79,0.00,,---,0.00,VWS V14.01,2013-12-04 06:02:00,
2013-12-03 22:07:00,53.1,46.8,29.66,West,267,0.0,0.0,79,0.00,,---,0.00,VWS V14.01,2013-12-04 06:07:00,
2013-12-03 22:17:00,52.9,46.2,29.66,West,267,0.0,0.0,78,0.00,,---,0.00,VWS V14.01,2013-12-04 06:17:00,
2013-12-03 22:22:00,52.9,46.2,29.66,West,267,0.0,0.0,78,0.00,,---,0.00,VWS V14.01,2013-12-04 06:22:00,
2013-12-03 22:27:00,52.8,46.1,29.66,West,267,0.0,0.0,78,0.00,,---,0.00,VWS V14.01,2013-12-04 06:27:00,
2013-12-03 22:37:00,52.8,45.8,29.66,West,267,0.0,0.0,77,0.00,,---,0.00,VWS V14.01,2013-12-04 06:37:00,
2013-12-03 22:47:00,52.5,45.5,29.67,West,267,0.0,0.0,77,0.00,,---,0.00,VWS V14.01,2013-12-04 06:47:00,
2013-12-03 22:52:00,52.5,45.5,29.67,West,267,0.0,0.0,77,0.00,,---,0.00,VWS V14.01,2013-12-04 06:52:00,
2013-12-03 23:02:00,52.3,45.3,29.67,West,267,0.0,0.0,77,0.00,,---,0.00,VWS V14.01,2013-12-04 07:02:00,
2013-12-03 23:12:00,52.3,45.3,29.67,West,267,0.0,0.0,77,0.00,,---,0.00,VWS V14.01,2013-12-04 07:12:00,
2013-12-03 23:22:00,52.2,45.2,29.67,West,267,0.0,0.0,77,0.00,,---,0.00,VWS V14.01,2013-12-04 07:22:00,
2013-12-03 23:27:00,52.2,45.2,29.67,West,267,0.0,0.0,77,0.00,,---,0.00,VWS V14.01,2013-12-04 07:27:00,
2013-12-03 23:37:00,52.0,45.0,29.67,West,267,0.0,0.0,77,0.00,,---,0.00,VWS V14.01,2013-12-04 07:37:00,
2013-12-03 23:47:00,52.0,45.0,29.67,West,267,0.0,0.0,77,0.00,,---,0.00,VWS V14.01,2013-12-04 07:47:00,
2013-12-03 23:52:00,52.0,45.0,29.67,West,267,0.0,0.0,77,0.00,,---,0.00,VWS V14.01,2013-12-04 07:52:00,